When you browse on this site, cookies collect data to enhance your experience and personalize the content and advertising you see.
Visit our Privacy Policy to learn more. By continuing to use the site, you agree to this use of cookies and data.
  • In Latvia
  • List of Countries
  • For 7 days
  • Water Temperature
  • Weather Map
  • Weather Widgets
  • user-avatar
    Login

    Hourly Weather Le Chatelard

    Today, 30 May, Saturday

    Time Temperature Precipitation Wind Pressure Humidity
    00:00 +9°C° 0 mm 2 mps 704 mmHg 90%
    01:00 +10°C° 0 mm 1 mps 704 mmHg 91%
    02:00 +10°C° 0 mm 1 mps 704 mmHg 91%
    03:00 +9°C° 0 mm 1 mps 704 mmHg 92%
    04:00 +10°C° 0 mm 1 mps 704 mmHg 88%
    05:00 +12°C° 0 mm 1 mps 704 mmHg 84%
    06:00 +13°C° 0 mm 1 mps 704 mmHg 80%
    07:00 +14°C° 0 mm 1 mps 704 mmHg 75%
    08:00 +16°C° 0 mm 2 mps 704 mmHg 70%
    09:00 +17°C° 0 mm 2 mps 704 mmHg 65%
    10:00 +17°C° 0.1 mm 2 mps 704 mmHg 65%
    11:00 +18°C° 0.1 mm 2 mps 703 mmHg 65%
    12:00 +18°C° 0.1 mm 3 mps 703 mmHg 64%
    13:00 +18°C° 0.2 mm 3 mps 703 mmHg 63%
    14:00 +18°C° 0.2 mm 3 mps 703 mmHg 62%
    15:00 +18°C° 0.2 mm 3 mps 703 mmHg 62%
    16:00 +17°C° 0.1 mm 3 mps 703 mmHg 65%
    17:00 +17°C° 0.1 mm 3 mps 702 mmHg 68%
    18:00 +16°C° 0.1 mm 3 mps 702 mmHg 71%
    19:00 +13°C° 0 mm 3 mps 702 mmHg 76%
    20:00 +11°C° 0 mm 3 mps 702 mmHg 81%
    21:00 +10°C° 0 mm 2 mps 703 mmHg 87%
    22:00 +9°C° 0 mm 2 mps 702 mmHg 88%
    23:00 +9°C° 0 mm 2 mps 702 mmHg 89%

    Tomorrow, 31 May, Sunday

    Time Temperature Precipitation Wind Pressure Humidity
    00:00 +9°C° 0 mm 2 mps 702 mmHg 89%
    01:00 +8°C° 0 mm 2 mps 702 mmHg 90%
    02:00 +8°C° 0 mm 2 mps 702 mmHg 91%
    03:00 +8°C° 0 mm 2 mps 702 mmHg 91%
    04:00 +9°C° 0 mm 2 mps 702 mmHg 87%
    05:00 +12°C° 0 mm 1 mps 703 mmHg 83%
    06:00 +13°C° 0 mm 1 mps 703 mmHg 79%
    07:00 +15°C° 0 mm 2 mps 703 mmHg 71%
    08:00 +17°C° 0 mm 2 mps 703 mmHg 64%
    09:00 +18°C° 0 mm 2 mps 703 mmHg 57%
    10:00 +19°C° 0.1 mm 2 mps 703 mmHg 57%
    11:00 +19°C° 0.1 mm 3 mps 703 mmHg 57%
    12:00 +20°C° 0.1 mm 3 mps 703 mmHg 57%
    13:00 +20°C° 0.3 mm 3 mps 703 mmHg 56%
    14:00 +20°C° 0.3 mm 3 mps 703 mmHg 56%
    15:00 +20°C° 0.3 mm 3 mps 703 mmHg 55%
    16:00 +19°C° 0.1 mm 3 mps 703 mmHg 61%
    17:00 +18°C° 0.1 mm 3 mps 703 mmHg 67%
    18:00 +17°C° 0.1 mm 3 mps 703 mmHg 72%
    19:00 +14°C° 0 mm 3 mps 703 mmHg 77%
    20:00 +13°C° 0 mm 2 mps 703 mmHg 82%
    21:00 +12°C° 0 mm 2 mps 703 mmHg 87%
    22:00 +10°C° 0 mm 2 mps 703 mmHg 88%
    23:00 +10°C° 0 mm 2 mps 703 mmHg 88%

    Day after tomorrow, 1 June, Monday

    Time Temperature Precipitation Wind Pressure Humidity
    00:00 +11°C° 0 mm 1 mps 703 mmHg 89%
    01:00 +10°C° 0 mm 1 mps 703 mmHg 89%
    02:00 +10°C° 0 mm 1 mps 703 mmHg 89%
    03:00 +10°C° 0 mm 1 mps 703 mmHg 89%
    04:00 +11°C° 0 mm 1 mps 703 mmHg 84%
    05:00 +13°C° 0 mm 1 mps 703 mmHg 80%
    06:00 +14°C° 0 mm 1 mps 703 mmHg 76%
    07:00 +16°C° 0 mm 1 mps 704 mmHg 68%
    08:00 +19°C° 0 mm 1 mps 704 mmHg 61%
    09:00 +21°C° 0 mm 1 mps 704 mmHg 54%
    10:00 +21°C° 0 mm 2 mps 704 mmHg 52%
    11:00 +23°C° 0 mm 2 mps 704 mmHg 50%
    12:00 +23°C° 0 mm 2 mps 704 mmHg 49%
    13:00 +23°C° 0 mm 2 mps 704 mmHg 49%
    14:00 +23°C° 0 mm 2 mps 704 mmHg 50%
    15:00 +23°C° 0 mm 2 mps 704 mmHg 51%
    16:00 +21°C° 0 mm 2 mps 703 mmHg 57%
    17:00 +20°C° 0 mm 2 mps 703 mmHg 64%
    18:00 +19°C° 0 mm 2 mps 703 mmHg 70%
    19:00 +17°C° 0 mm 2 mps 703 mmHg 74%
    20:00 +15°C° 0 mm 2 mps 704 mmHg 79%
    21:00 +14°C° 0 mm 2 mps 704 mmHg 83%
    22:00 +13°C° 0 mm 1 mps 704 mmHg 83%
    23:00 +13°C° 0 mm 1 mps 703 mmHg 83%

    2 June, Tuesday

    Time Temperature Precipitation Wind Pressure Humidity
    00:00 +12°C° 0 mm 1 mps 703 mmHg 84%
    01:00 +12°C° 0 mm 1 mps 703 mmHg 84%
    02:00 +12°C° 0 mm 1 mps 703 mmHg 85%
    03:00 +11°C° 0 mm 1 mps 703 mmHg 86%
    04:00 +13°C° 0 mm 1 mps 703 mmHg 82%
    05:00 +14°C° 0 mm 0 mps 704 mmHg 78%
    06:00 +15°C° 0 mm 0 mps 704 mmHg 74%
    07:00 +19°C° 0 mm 1 mps 704 mmHg 66%
    08:00 +21°C° 0 mm 1 mps 704 mmHg 59%
    09:00 +23°C° 0 mm 1 mps 704 mmHg 52%
    10:00 +24°C° 0 mm 1 mps 703 mmHg 49%
    11:00 +24°C° 0 mm 1 mps 703 mmHg 45%
    12:00 +25°C° 0 mm 2 mps 703 mmHg 42%
    13:00 +25°C° 0 mm 2 mps 702 mmHg 44%
    14:00 +25°C° 0 mm 2 mps 702 mmHg 45%
    15:00 +25°C° 0 mm 2 mps 702 mmHg 46%
    16:00 +23°C° 0.1 mm 1 mps 701 mmHg 56%
    17:00 +22°C° 0.1 mm 1 mps 701 mmHg 66%
    18:00 +21°C° 0.1 mm 1 mps 700 mmHg 76%
    19:00 +19°C° 0 mm 1 mps 700 mmHg 79%
    20:00 +16°C° 0 mm 1 mps 700 mmHg 83%
    21:00 +15°C° 0 mm 1 mps 700 mmHg 87%
    22:00 +14°C° 0 mm 1 mps 699 mmHg 87%
    23:00 +14°C° 0 mm 1 mps 699 mmHg 87%

    3 June, Wednesday

    Time Temperature Precipitation Wind Pressure Humidity
    00:00 +14°C° 0 mm 1 mps 699 mmHg 87%
    01:00 +14°C° 0.1 mm 1 mps 698 mmHg 87%
    02:00 +13°C° 0.1 mm 1 mps 698 mmHg 87%
    03:00 +13°C° 0.1 mm 1 mps 697 mmHg 88%
    04:00 +14°C° 0.5 mm 1 mps 697 mmHg 88%
    05:00 +15°C° 0.5 mm 1 mps 697 mmHg 89%
    06:00 +15°C° 0.5 mm 1 mps 697 mmHg 89%
    07:00 +18°C° 0.2 mm 1 mps 697 mmHg 81%
    08:00 +20°C° 0.2 mm 1 mps 697 mmHg 72%
    09:00 +23°C° 0.2 mm 1 mps 697 mmHg 63%
    10:00 +22°C° 0.7 mm 1 mps 697 mmHg 66%
    11:00 +21°C° 0.7 mm 2 mps 696 mmHg 69%
    12:00 +21°C° 0.7 mm 2 mps 696 mmHg 72%
    13:00 +21°C° 1.3 mm 2 mps 695 mmHg 75%
    14:00 +20°C° 1.3 mm 2 mps 695 mmHg 78%
    15:00 +20°C° 1.3 mm 2 mps 695 mmHg 81%
    16:00 +19°C° 0.9 mm 2 mps 695 mmHg 84%
    17:00 +18°C° 0.9 mm 2 mps 694 mmHg 87%
    18:00 +17°C° 0.9 mm 2 mps 694 mmHg 90%
    19:00 +16°C° 0.4 mm 2 mps 694 mmHg 92%
    20:00 +16°C° 0.4 mm 2 mps 695 mmHg 94%
    21:00 +15°C° 0.4 mm 2 mps 695 mmHg 95%
    22:00 +15°C° 0.3 mm 1 mps 694 mmHg 96%
    23:00 +15°C° 0.3 mm 1 mps 694 mmHg 96%

    4 June, Thursday

    Time Temperature Precipitation Wind Pressure Humidity
    00:00 +15°C° 0.3 mm 1 mps 694 mmHg 96%
    01:00 +15°C° 0.3 mm 1 mps 693 mmHg 96%
    02:00 +15°C° 0.3 mm 1 mps 693 mmHg 96%
    03:00 +15°C° 0.3 mm 1 mps 693 mmHg 96%
    04:00 +14°C° 0.9 mm 0 mps 692 mmHg 96%
    05:00 +14°C° 0.9 mm 0 mps 692 mmHg 96%
    06:00 +14°C° 0.9 mm 0 mps 692 mmHg 96%
    07:00 +14°C° 1.8 mm 0 mps 692 mmHg 96%
    08:00 +14°C° 1.8 mm 0 mps 692 mmHg 96%
    09:00 +16°C° 1.8 mm 1 mps 692 mmHg 96%
    10:00 +15°C° 2.2 mm 1 mps 692 mmHg 96%
    11:00 +15°C° 2.2 mm 1 mps 692 mmHg 96%
    12:00 +15°C° 2.2 mm 2 mps 692 mmHg 96%
    13:00 +15°C° 2.2 mm 2 mps 692 mmHg 95%
    14:00 +16°C° 2.2 mm 2 mps 692 mmHg 94%
    15:00 +16°C° 2.2 mm 2 mps 691 mmHg 94%
    16:00 +15°C° 2.3 mm 2 mps 691 mmHg 95%
    17:00 +15°C° 2.3 mm 2 mps 691 mmHg 96%
    18:00 +14°C° 2.3 mm 2 mps 690 mmHg 97%
    19:00 +14°C° 1.8 mm 2 mps 691 mmHg 97%
    20:00 +13°C° 1.8 mm 2 mps 691 mmHg 97%
    21:00 +13°C° 1.8 mm 2 mps 691 mmHg 97%
    22:00 +13°C° 0.2 mm 2 mps 691 mmHg 96%
    23:00 +12°C° 0.2 mm 2 mps 690 mmHg 95%
    Show more